CZ-6A DEB, 60630

Orbit data source: Space-Track

CZ-6A DEB, 60630 is space debris in LEO originally from a launch on Tue, 06 Aug 2024 UTC launched from the Taiyaun Space Center, China (TSC). Debris objects in space refer to the collection of defunct objects orbiting the Earth. Examples of debris include non-operational satellites, rocket bodies, and fragments generated from explosions, collisions, or faulty payload assembly.

Loading next visibility...
Identifier
60630, 2024-140AF
Orbit
LEO
Country
Flag of CNCN / PRC
Related business
Manufacturer
SAST
Mission
Spacecraft
Bus & Motor
Unknown
Mass
Unknown
Launch date (UTC)
2024-08-06 (2 years ago)
Launch vehicle
Unknown
Launch site
Taiyaun Space Center, China (TSC)
Object type
Payload
Rocket body
Debris
Shape & HBR
Unknown shape, 0.2 m
Radar Cross Section
Medium (>0.1 m² and <1 m²)

Expand to show TLE details & history
Last TLE update: 20 hours ago

TLE from 20 hours ago
0 CZ-6A DEB
1 60630U 24140AF  26171.07069365  .00063723  00000-0  26588-2 0  9991
2 60630  88.2825 203.5630 0070866  72.1568 288.7391 15.21098863100771
Epoch: 2026-06-20T01:41Z
TLE epoch observation values (Epoch: 2026-06-20T01:41:47.931Z)
Latitude
-0.00001°
Longitude
-90.1773°
Altitude
490.36 km
Speed
7.628 km/s
True Right ascension
13h 34m 15s
True Declination
0° 00' 00"
Sunlit
Object was in full shadow at epoch
Visualization orbit readout
Latitude
Unknown
Longitude
Unknown
Altitude
Unknown
Speed
Unknown
Apparent Right ascension
Unknown
Apparent Declination
Unknown
Sunlit
N/A
Visualization observer readout
Local Sidereal Time
08:43:12
Azimuth
Unknown
Elevation
Unknown
Doppler factor
Unknown
Orbital elements
Apogee altitude
548.076 km
Perigee altitude
450.6 km
Semi-major axis
6,877.475 km
Eccentricity
0.00709
Inclination
88.2825°
RAAN
203.563°
Arg. of periapsis
72.1568°
True anomaly
287.96791°
Mean anomaly
288.7391°
Eccentric anomaly
288.35372°
Mean motion
3.80539 °/min
Orbital period
94.6 mins
BSTAR
0.0026588
Loading maneuver chart data...
Computing Atmospheric mass density...
Loading historical data...
Loading historical data...
Loading historical data...
Loading historical data...
Loading historical data...
Loading historical data...
Loading historical data...

Documentation

Showing up to 5 results
|